Weather History for CYMX - March, 2014

Change the Weather History Date:

Saturday, March 22, 2014

  Actual Average Record
Temperature  
Mean Temperature 26 °F -  
Max Temperature 33 °F 33 °F 75 °F (2012)
Min Temperature 19 °F 18 °F 1 °F (2002)
Degree Days  
Heating Degree Days 39    
Moisture  
Dew Point 21 °F    
Average Humidity 81    
Maximum Humidity 93    
Minimum Humidity 68    
Precipitation  
Precipitation 0.00 in - - ()
Sea Level Pressure  
Sea Level Pressure 29.83 in    
Wind  
Wind Speed 5 mph ()    
Max Wind Speed 12 mph    
Max Gust Speed 23 mph    
Visibility 4.5 miles    
Events Snow    
Averages and records for this station are not official NWS values.
T = Trace of Precipitation, MM = Missing Value Source: Averaged Metar Reports

Daily Weather History Graph

Daily Weather History Graph

Search for Another Location

Airport or City:

Trip Planner

Search our weather history database for the weather conditions in past years. The results will help you decide how hot, cold, wet, or windy it might be!

Date:

Astronomy

Mar. 22, 2014 Rise Set
Actual Time 6:55 AM EDT 7:11 PM EDT
Civil Twilight 6:25 AM EDT 7:41 PM EDT
Nautical Twilight 5:50 AM EDT 8:16 PM EDT
Astronomical Twilight 5:15 AM EDT 8:52 PM EDT
Moon 12:42 AM EDT (3/22) 10:21 AM EDT (3/22)
Length of Visible Light 13h 15m
Length of Day
12h 15m
Waning Gibbous, 65% of the Moon is Illuminated
Mar 22
Waning Gibbous
Mar 23
Last Quarter
Mar 30
New
Apr 7
First Quarter
Apr 15
Full

Hourly Weather History & Observations

Time (EDT) Temp. Windchill Dew Point Humidity Pressure Visibility Wind Dir Wind Speed Gust Speed Precip Events Conditions
12:00 AM 23.0 °F - 14.0 °F 68% 30.02 in 25.0 mi SW 2.3 mph - N/A   Clear
1:00 AM 23.0 °F - 14.0 °F 68% 30.03 in 25.0 mi WSW 2.3 mph - N/A   Partly Cloudy
2:00 AM 21.2 °F - 14.0 °F 74% 30.01 in 25.0 mi Calm Calm - N/A   Partly Cloudy
3:00 AM 19.4 °F 14.3 °F 14.0 °F 80% 29.97 in 25.0 mi NE 3.5 mph - N/A   Mostly Cloudy
4:00 AM 19.4 °F - 14.0 °F 80% 29.93 in 25.0 mi NNE 2.3 mph - N/A   Overcast
5:00 AM 19.4 °F 10.4 °F 14.0 °F 80% 29.90 in 25.0 mi NNE 6.9 mph - N/A   Overcast
6:00 AM 19.4 °F 14.3 °F 14.0 °F 80% 29.88 in 25.0 mi NNE 3.5 mph - N/A   Overcast
7:00 AM 21.2 °F 14.9 °F 15.8 °F 80% 29.84 in 25.0 mi NE 4.6 mph - N/A   Overcast
8:00 AM 21.2 °F 13.6 °F 15.8 °F 80% 29.81 in 25.0 mi NE 5.8 mph - N/A   Overcast
8:06 AM 21.2 °F 12.6 °F 15.8 °F 80% 29.80 in 15.0 mi NE 6.9 mph - N/A Snow Light Snow
8:32 AM 23.0 °F 14.7 °F 17.6 °F 80% 29.76 in 3.0 mi NE 6.9 mph - N/A Snow Light Snow
8:39 AM 23.0 °F 14.7 °F 17.6 °F 80% 29.76 in 1.0 mi NE 6.9 mph - N/A Snow Light Snow
9:00 AM 23.0 °F 14.7 °F 19.4 °F 86% 29.74 in 1.5 mi NE 6.9 mph - N/A Snow Light Snow
9:32 AM 23.0 °F 13.1 °F 21.2 °F 93% 29.73 in 0.8 mi NE 9.2 mph - N/A Snow Light Snow
10:00 AM 23.0 °F 11.7 °F 21.2 °F 93% 29.73 in 0.5 mi ENE 11.5 mph 18.4 mph N/A Snow Snow
11:00 AM 23.0 °F 13.9 °F 21.2 °F 93% 29.67 in 0.1 mi NE 8.1 mph - N/A Snow Snow
12:00 PM 24.8 °F 15.3 °F 21.2 °F 86% 29.65 in 0.5 mi NE 9.2 mph - N/A Snow Snow
1:00 PM 26.6 °F 16.8 °F 23.0 °F 86% 29.65 in 0.8 mi North 10.4 mph - N/A Snow Light Snow
1:22 PM 26.6 °F 16.8 °F 23.0 °F 86% 29.67 in 2.0 mi NNE 10.4 mph - N/A Snow Light Snow
2:00 PM 28.4 °F 19.7 °F 23.0 °F 80% 29.70 in 4.0 mi North 9.2 mph - N/A Snow Light Snow
3:00 PM 32.0 °F 25.6 °F 23.0 °F 69% 29.74 in 10.0 mi NW 6.9 mph - N/A Snow Light Snow
4:00 PM 33.8 °F 26.4 °F 24.8 °F 70% 29.77 in 25.0 mi WSW 9.2 mph - N/A   Overcast
5:00 PM 32.0 °F 24.8 °F 24.8 °F 75% 29.82 in 25.0 mi WSW 8.1 mph 23.0 mph N/A   Overcast
6:00 PM 32.0 °F 23.0 °F 24.8 °F 75% 29.85 in 15.0 mi WSW 11.5 mph 19.6 mph N/A   Overcast
7:00 PM 32.0 °F 24.8 °F 24.8 °F 75% 29.86 in 20.0 mi WSW 8.1 mph - N/A   Mostly Cloudy
8:00 PM 30.2 °F 24.3 °F 23.0 °F 75% 29.87 in 25.0 mi WSW 5.8 mph - N/A   Mostly Cloudy
9:00 PM 30.2 °F 23.4 °F 24.8 °F 80% 29.88 in 25.0 mi SW 6.9 mph - N/A   Mostly Cloudy
10:00 PM 28.4 °F 22.2 °F 23.0 °F 80% 29.88 in 25.0 mi WSW 5.8 mph - N/A   Mostly Cloudy
11:00 PM 28.4 °F 20.4 °F 24.8 °F 86% 29.87 in 25.0 mi WSW 8.1 mph - N/A   Mostly Cloudy
11:26 PM 28.4 °F 22.2 °F 26.6 °F 93% 29.86 in 4.0 mi WSW 5.8 mph - N/A Snow Light Snow Showers
11:35 PM 28.4 °F 21.2 °F 26.6 °F 93% 29.86 in 1.0 mi WSW 6.9 mph - N/A Snow Light Snow Showers
11:39 PM 30.2 °F 23.4 °F 26.6 °F 86% 29.86 in 0.5 mi WSW 6.9 mph - N/A Snow Snow Showers
11:47 PM 30.2 °F 23.4 °F 26.6 °F 86% 29.86 in 1.0 mi SW 6.9 mph - N/A Snow Light Snow Showers